LU8FJH-13 Weather Reports


time (UTC)temp
F
wind
direction
speed
knots
gust
knots
rain 1hr
in
rain 24hr
in
rain mn
in
humidity
%
barometer
mb
20260505192801 83 23 0.0 1.7 0.00 0.00 0.00 69 1009.8
20260505191900 82 1 0.0 0.9 0.00 0.00 0.00 73 1009.9
20260505191000 81 1 0.0 2.6 0.00 0.00 0.00 72 1010.2
20260505190100 81 28 0.0 2.6 0.00 0.00 0.00 71 1010.1
20260505185200 81 305 0.9 2.6 0.00 0.00 0.00 69 1009.9
20260505184300 82 0 0.0 0.0 0.00 0.00 0.00 68 1010.1
20260505183400 83 0 0.0 0.0 0.00 0.00 0.00 66 1010.2
20260505182500 83 43 0.0 3.5 0.00 0.00 0.00 66 1010.2
20260505181600 84 42 1.7 3.5 0.00 0.00 0.00 65 1010.0
20260505180700 84 14 0.9 3.5 0.00 0.00 0.00 63 1010.2
20260505175800 84 50 0.0 1.7 0.00 0.00 0.00 66 1010.1
20260505174900 83 101 0.9 1.7 0.00 0.00 0.00 65 1010.4
20260505174002 83 348 0.0 3.5 0.00 0.00 0.00 66 1010.2
20260505173100 81 220 1.7 2.6 0.00 0.00 0.00 69 1010.3
20260505172200 81 270 0.0 0.9 0.00 0.00 0.00 69 1010.6
20260505171300 81 270 0.0 1.7 0.00 0.00 0.00 70 1010.7
20260505170400 80 270 0.9 3.5 0.00 0.00 0.00 70 1010.8
20260505165500 82 270 0.9 1.7 0.00 0.00 0.00 69 1010.9
20260505164600 80 270 0.9 3.5 0.00 0.00 0.00 71 1011.0
20260505163700 79 302 0.0 2.6 0.00 0.00 0.00 73 1010.8
20260505162800 78 24 0.0 1.7 0.00 0.00 0.00 75 1011.2
20260505161900 78 17 1.7 2.6 0.00 0.00 0.00 75 1011.3
20260505161000 77 280 0.9 1.7 0.00 0.00 0.00 77 1011.3
20260505152500 74 345 0.0 3.5 0.00 0.00 0.00 81 1011.4
20260505151600 74 342 0.9 4.3 0.00 0.00 0.00 82 1011.7
20260505150700 74 347 1.7 4.3 0.00 0.00 0.00 83 1011.7
20260505140400 72 334 0.9 3.5 0.00 0.00 0.00 81 1012.4
20260505124300 71 288 0.0 1.7 0.00 0.00 0.00 85 1012.4
20260505123400 70 303 0.9 3.5 0.00 0.00 0.00 86 1012.4
20260505122500 69 33 0.0 3.5 0.00 0.00 0.00 87 1012.1
20260505121600 69 23 0.9 3.5 0.00 0.00 0.00 88 1012.3
20260505120700 69 45 0.9 2.6 0.00 0.00 0.00 89 1012.0
20260505114900 69 12 0.0 1.7 0.00 0.00 0.00 90 1012.0
20260505114000 68 278 0.0 1.7 0.00 0.00 0.00 91 1012.1
20260505113100 68 314 0.9 1.7 0.00 0.00 0.00 92 1011.8
20260505112200 68 314 0.0 2.6 0.00 0.00 0.00 92 1011.6
20260505111301 67 314 0.0 0.9 0.00 0.00 0.00 92 1011.5
20260505110400 67 346 0.0 2.6 0.00 0.00 0.00 92 1011.4
20260505101859 67 344 0.0 1.7 0.00 0.00 0.00 91 1011.6
20260505101000 67 1 0.0 0.9 0.00 0.00 0.00 91 1010.9
20260505100100 67 181 0.0 0.9 0.00 0.00 0.00 91 1011.0
20260505095200 67 274 0.0 2.6 0.00 0.00 0.00 91 1011.1
20260505094300 67 4 0.0 1.7 0.00 0.00 0.00 91 1011.1
20260505093359 67 309 0.0 1.7 0.00 0.00 0.00 91 1011.0
20260505092459 67 298 0.0 1.7 0.00 0.00 0.00 91 1010.9
20260505091600 67 342 0.0 1.7 0.00 0.00 0.00 91 1010.9
20260505090700 67 151 0.0 1.7 0.00 0.00 0.00 90 1010.6
20260505085759 67 270 0.0 1.7 0.00 0.00 0.00 90 1010.7
20260505084900 67 264 0.0 3.5 0.00 0.00 0.00 90 1010.5
20260505083959 67 333 0.0 3.5 0.00 0.00 0.00 90 1010.4
20260505083059 67 285 0.9 3.5 0.00 0.00 0.00 90 1010.3
20260505082200 67 325 1.7 3.5 0.00 0.00 0.00 89 1010.5
20260505081259 67 334 1.7 3.5 0.00 0.00 0.00 89 1010.6
20260505080359 67 340 0.0 2.6 0.00 0.00 0.00 88 1010.6
20260505075459 67 341 0.0 2.6 0.00 0.00 0.00 88 1010.7
20260505074559 67 31 0.0 2.6 0.00 0.00 0.00 87 1010.6
20260505073659 67 1 0.0 1.7 0.00 0.00 0.00 87 1010.5
20260505072759 67 10 0.0 1.7 0.00 0.00 0.00 87 1010.3
20260505071859 67 32 0.0 2.6 0.00 0.00 0.00 86 1010.6
20260505070959 67 346 0.0 1.7 0.00 0.00 0.00 86 1010.6
20260505070059 67 295 0.0 2.6 0.00 0.00 0.00 85 1010.6
20260505065200 67 306 0.0 3.5 0.00 0.00 0.00 85 1010.8
20260505064300 67 345 0.9 4.3 0.00 0.00 0.00 85 1010.7
20260505063359 67 5 0.0 3.5 0.00 0.00 0.00 85 1010.7
20260505062500 67 306 0.9 3.5 0.00 0.00 0.00 84 1010.6
20260505061559 67 354 0.0 3.5 0.00 0.00 0.00 84 1010.6
20260505060659 67 308 1.7 3.5 0.00 0.00 0.00 83 1010.7
20260505055800 67 310 1.7 3.5 0.00 0.00 0.00 83 1010.8
20260505054859 67 354 1.7 6.1 0.00 0.00 0.00 83 1010.9
20260505053959 67 176 0.9 4.3 0.00 0.00 0.00 82 1011.1
20260505053059 67 264 0.9 3.5 0.00 0.00 0.00 82 1010.6
20260505052159 67 13 0.0 4.3 0.00 0.00 0.00 81 1010.9
20260505051259 67 313 1.7 4.3 0.00 0.00 0.00 80 1010.7
20260505050359 66 4 1.7 4.3 0.00 0.00 0.00 79 1010.7
20260505040959 67 353 1.7 3.5 0.00 0.00 0.00 71 1011.2
20260505040059 67 349 1.7 3.5 0.00 0.00 0.00 70 1011.3
20260505035159 67 342 0.0 4.3 0.00 0.00 0.00 68 1011.0
20260505034259 67 299 1.7 3.5 0.00 0.00 0.00 67 1011.1
20260505033359 67 13 0.0 3.5 0.00 0.00 0.00 65 1010.8
20260505032459 68 21 1.7 5.2 0.00 0.00 0.00 65 1010.8
20260505031559 68 289 1.7 7.0 0.00 0.00 0.00 62 1010.7
20260505030659 68 291 1.7 7.0 0.00 0.00 0.00 61 1010.8
20260505025759 68 270 0.0 6.1 0.00 0.00 0.00 62 1010.7
20260505024859 68 267 0.0 3.5 0.00 0.00 0.00 61 1010.8
20260505023959 68 326 0.9 4.3 0.00 0.00 0.00 61 1010.7
20260505023059 68 20 1.7 4.3 0.00 0.00 0.00 62 1010.6
20260505022159 67 58 0.9 4.3 0.00 0.00 0.00 61 1010.5
20260505021259 67 58 1.7 4.3 0.00 0.00 0.00 61 1010.5
20260505020359 67 110 0.0 3.5 0.00 0.00 0.00 59 1010.4
20260505015459 67 7 0.0 3.5 0.00 0.00 0.00 59 1010.3
20260505014559 66 19 1.7 2.6 0.00 0.00 0.00 62 1010.5
20260505013659 66 116 0.9 4.3 0.00 0.00 0.00 63 1010.5
20260505012759 66 264 0.0 2.6 0.00 0.00 0.00 62 1010.3
20260505011859 66 270 0.9 3.5 0.00 0.00 0.00 61 1010.2
20260505010959 67 270 0.0 2.6 0.00 0.00 0.00 61 1010.4
20260505010059 67 270 1.7 2.6 0.00 0.00 0.00 61 1010.3
20260505005159 67 270 0.9 1.7 0.00 0.00 0.00 61 1010.5
20260505004259 67 270 0.0 1.7 0.00 0.00 0.00 61 1010.3
20260505003359 67 270 0.9 2.6 0.00 0.00 0.00 62 1010.2
20260505002459 67 270 0.0 3.5 0.00 0.00 0.00 62 1010.2
20260505001559 66 270 0.0 1.7 0.00 0.00 0.00 63 1010.1
20260505000659 66 270 0.0 1.7 0.00 0.00 0.00 63 1010.4
20260504235759 66 270 0.9 2.6 0.00 0.00 0.00 62 1010.2
20260504234859 66 270 0.0 1.7 0.00 0.00 0.00 62 1010.1
20260504233959 66 270 0.0 2.6 0.00 0.00 0.00 62 1009.9
20260504233059 67 270 0.0 2.6 0.00 0.00 0.00 61 1009.9
20260504232159 67 270 0.0 1.7 0.00 0.00 0.00 61 1009.7
20260504231259 67 270 0.9 1.7 0.00 0.00 0.00 59 1009.6
20260504230359 67 270 0.0 1.7 0.00 0.00 0.00 58 1009.5
20260504225459 67 270 0.0 2.6 0.00 0.00 0.00 57 1009.5
20260504224559 67 270 0.0 1.7 0.00 0.00 0.00 57 1009.4
20260504223659 67 270 0.0 1.7 0.00 0.00 0.00 56 1009.4
20260504222759 67 270 0.0 1.7 0.00 0.00 0.00 56 1009.1
20260504221859 67 270 0.0 0.9 0.00 0.00 0.00 55 1009.1
20260504220959 67 0 0.0 0.0 0.00 0.00 0.00 54 1008.9
20260504220059 68 270 0.0 1.7 0.00 0.00 0.00 53 1008.9
20260504215159 68 270 0.0 1.7 0.00 0.00 0.00 52 1008.8
20260504214259 68 270 0.0 1.7 0.00 0.00 0.00 52 1008.7
20260504213359 69 0 0.0 0.0 0.00 0.00 0.00 52 1008.7
20260504212459 69 270 0.0 1.7 0.00 0.00 0.00 51 1008.8
20260504211558 70 270 0.0 1.7 0.00 0.00 0.00 49 1009.0
20260504210659 70 270 0.0 1.7 0.00 0.00 0.00 49 1009.0
20260504205759 71 270 0.0 1.7 0.00 0.00 0.00 49 1009.0
20260504204859 71 270 1.7 1.7 0.00 0.00 0.00 49 1009.0
20260504204002 72 270 0.0 1.7 0.00 0.00 0.00 47 1008.9
20260504203059 72 270 0.9 6.1 0.00 0.00 0.00 46 1008.8
20260504202159 72 270 1.7 6.1 0.00 0.00 0.00 44 1008.8
20260504201259 73 270 0.0 3.5 0.00 0.00 0.00 43 1008.6
20260504200359 73 270 1.7 3.5 0.00 0.00 0.00 42 1008.9
20260504195458 75 291 2.6 3.5 0.00 0.00 0.00 39 1008.7
20260504194559 78 295 1.7 3.5 0.00 0.00 0.00 35 1009.0
20260504193659 79 270 0.9 3.5 0.00 0.00 0.00 33 1008.8